Tracking 19706 objects as of 16-Jun-2019
HD Live streaming from Space Station
objects crossing your sky now

DELTA 1 DEB

Track DELTA 1 DEB now!
10-day predictions


NORAD ID: 7191
Int'l Code: 1973-086EZ
Perigee: 1,435.6 km
Apogee: 1,833.8 km
Inclination: 102.1 °
Period: 118.8 minutes
Semi major axis: 8005 km
RCS: 0.0206 m2 (small)
Launch date: November 6, 1973
Source: United States (US)
Launch site: AIR FORCE WESTERN TEST RANGE (AFWTR)

Note: This is SATELLITE DEBRIS
aabbcc
Your satellite tracking list
Your tracking list is empty




NASA's NSSDC Master Catalog

Two Line Element Set (TLE):
1  7191U 73086EZ  19166.80420437  .00000659  00000-0  67983-2 0  9998
2  7191 102.0753 148.9930 0248731 164.2413 316.6583 12.12005404588639
Source of the keplerian elements: AFSPC